This is the latest recevied weather packets stored in our database for station/object N4DBJ. If no packets are shown the sender has not sent any weather packets the latest 10 day(s).
| Time | Temp. | Humidity | Pressure | Rain* | Wind** | Luminosity | Snow |
|---|---|---|---|---|---|---|---|
| 1777518601 | 12.78° C | 92% | 1013.3 hPa | 0 mm | - | 0 W/m² | - |
| 1777518296 | 13.33° C | 92% | 1013.3 hPa | 0 mm | - | 0 W/m² | - |
| 1777517992 | 13.33° C | 92% | 1012.9 hPa | 0 mm | - | 0 W/m² | - |
| 1777517689 | 12.78° C | 92% | 1013.2 hPa | 0 mm | - | 0 W/m² | - |
| 1777517385 | 12.78° C | 92% | 1013.2 hPa | 0 mm | - | 0 W/m² | - |
| 1777517079 | 12.78° C | 91% | 1013.2 hPa | 0 mm | - | 0 W/m² | - |
| 1777516776 | 13.33° C | 91% | 1013 hPa | 0 mm | - | 0 W/m² | - |
| 1777516472 | 13.33° C | 90% | 1013 hPa | 0 mm | - | 0 W/m² | - |
| 1777516167 | 13.33° C | 88% | 1012.5 hPa | 0 mm | - | 0 W/m² | - |
| 1777515866 | 13.89° C | 87% | 1012.4 hPa | 0 mm | - | 0 W/m² | - |
| 1777515561 | 13.89° C | 88% | 1012.3 hPa | 0 mm | - | 0 W/m² | - |
| 1777515259 | 13.89° C | 88% | 1011.9 hPa | 0 mm | - | 0 W/m² | - |
| 1777514955 | 13.33° C | 89% | 1012 hPa | 0 mm | - | 0 W/m² | - |
| 1777514651 | 13.33° C | 92% | 1011.9 hPa | 0 mm | - | 0 W/m² | - |
| 1777514349 | 12.78° C | 93% | 1012 hPa | 0 mm | - | 0 W/m² | - |
| 1777514045 | 12.78° C | 93% | 1011.8 hPa | 0 mm | - | 0 W/m² | - |
| 1777513743 | 12.78° C | 92% | 1011.7 hPa | 0 mm | - | 0 W/m² | - |
| 1777513440 | 12.78° C | 91% | 1011.9 hPa | 0 mm | - | 0 W/m² | - |
| 1777513136 | 12.78° C | 90% | 1011.9 hPa | 0 mm | - | 0 W/m² | - |
| 1777512831 | 13.33° C | 90% | 1011.8 hPa | 0 mm | - | 0 W/m² | - |
| 1777512529 | 13.89° C | 89% | 1011.7 hPa | 0 mm | - | 0 W/m² | - |
| 1777512225 | 13.89° C | 88% | 1011.6 hPa | 0 mm | - | 0 W/m² | - |
| 1777511923 | 14.44° C | 86% | 1011.4 hPa | 0 mm | - | 0 W/m² | - |
| 1777511620 | 15° C | 84% | 1011.1 hPa | 0 mm | - | 0 W/m² | - |
| 1777511318 | 15° C | 83% | 1011.4 hPa | 0 mm | - | 0 W/m² | - |
* Rain latest hour (hover to see other rain measurements)
** Current wind speed in m/s (hover to see current wind gust speed)